Weather History for Vitoria, Spain

Change the Weather History Date:

Monday, October 10, 2011

  Actual Average Record
Temperature  
Mean Temperature 60 °F -  
Max Temperature 78 °F 61 °F 78 °F (2011)
Min Temperature 42 °F 43 °F 37 °F (2001)
Degree Days  
Heating Degree Days 5    
Growing Degree Days 10 (Base 50)    
Moisture  
Dew Point 49 °F    
Average Humidity 81    
Maximum Humidity 100    
Minimum Humidity 34    
Precipitation  
Precipitation 0.00 in - - ()
Sea Level Pressure  
Sea Level Pressure 30.35 in    
Wind  
Wind Speed 0 mph ()    
Max Wind Speed 6 mph    
Max Gust Speed -    
Visibility 1.5 miles    
Events Fog    
Averages and records for this station are not official NWS values.
T = Trace of Precipitation, MM = Missing Value Source: Averaged Metar Reports

Daily Weather History Graph

Daily Weather History Graph

Search for Another Location

Airport:

Trip Planner

Search our weather history database for the weather conditions in past years. The results will help you decide how hot, cold, wet, or windy it might be!

Date:

Astronomy

Oct. 10, 2011 Rise Set
Actual Time 8:17 AM CEST 7:37 PM CEST
Civil Twilight 7:49 AM CEST 8:05 PM CEST
Nautical Twilight 7:16 AM CEST 8:38 PM CEST
Astronomical Twilight 6:43 AM CEST 9:11 PM CEST
Moon 6:35 PM CEST (10/10) 6:44 AM CEST (10/10)
Length of Visible Light 12h 16m
Length of Day
11h 19m
Waxing Gibbous, 97% of the Moon is Illuminated
Oct 10
Waxing Gibbous
Oct 12
Full
Oct 20
Last Quarter
Oct 26
New
Nov 2
First Quarter

Hourly Weather History & Observations

Time (CEST) Temp. Windchill Dew Point Humidity Pressure Visibility Wind Dir Wind Speed Gust Speed Precip Events Conditions
12:00 AM 50.0 °F - 48.2 °F 94% 30.42 in - Calm Calm - N/A   Clear
12:30 AM 48.2 °F - 46.4 °F 93% 30.42 in - Calm Calm - N/A   Clear
1:00 AM 48.2 °F - 48.2 °F 100% 30.39 in - Calm Calm - N/A   Clear
1:30 AM 48.2 °F - 46.4 °F 93% 30.39 in - Calm Calm - N/A   Clear
2:00 AM 46.4 °F - 46.4 °F 100% 30.39 in - Variable 1.2 mph - N/A   Clear
2:30 AM 46.4 °F - 44.6 °F 93% 30.39 in - Variable 1.2 mph - N/A   Clear
3:00 AM 46.4 °F - 46.4 °F 100% 30.39 in - Calm Calm - N/A   Clear
3:30 AM 44.6 °F - 44.6 °F 100% 30.39 in - Calm Calm - N/A   Clear
4:00 AM 46.4 °F - 46.4 °F 100% 30.36 in - Calm Calm - N/A   Clear
4:30 AM 44.6 °F - 42.8 °F 93% 30.36 in 6.2 mi Calm Calm - N/A   Partly Cloudy
5:00 AM 44.6 °F - 42.8 °F 93% 30.36 in 6.2 mi Calm Calm - N/A   Partly Cloudy
5:30 AM 42.8 °F - 42.8 °F 100% 30.36 in 3.7 mi Calm Calm - N/A   Scattered Clouds
5:39 AM 42.8 °F - 42.8 °F 100% 30.36 in 1.2 mi Calm Calm - N/A Fog Patches of Fog
6:00 AM 42.8 °F - 42.8 °F 100% 30.36 in 0.9 mi Calm Calm - N/A Fog Patches of Fog
6:06 AM 42.8 °F 40.1 °F 42.8 °F 100% 30.36 in 0.1 mi ENE 4.6 mph - N/A Fog Fog
6:30 AM 44.6 °F - 44.6 °F 100% 30.36 in 0.1 mi ENE 2.3 mph - N/A Fog Fog
7:00 AM 46.4 °F - 46.4 °F 100% 30.36 in 0.1 mi Calm Calm - N/A Fog Fog
7:30 AM 48.2 °F - 48.2 °F 100% 30.36 in 0.1 mi Calm Calm - N/A Fog Fog
8:00 AM 46.4 °F - 46.4 °F 100% 30.36 in 0.1 mi Calm Calm - N/A Fog Fog
8:30 AM 46.4 °F - 46.4 °F 100% 30.36 in 0.1 mi Calm Calm - N/A Fog Fog
9:30 AM 46.4 °F - 46.4 °F 100% 30.36 in 0.1 mi Calm Calm - N/A Fog Fog
10:00 AM 48.2 °F - 48.2 °F 100% 30.39 in 0.1 mi Calm Calm - N/A Fog Fog
10:30 AM 48.2 °F - 48.2 °F 100% 30.39 in 0.2 mi Calm Calm - N/A Fog Fog
11:00 AM 48.2 °F - 48.2 °F 100% 30.39 in 0.2 mi Calm Calm - N/A Fog Fog
11:30 AM 50.0 °F - 50.0 °F 100% 30.39 in 0.2 mi Calm Calm - N/A Fog Fog
12:30 PM 53.6 °F - 53.6 °F 100% 30.39 in 2.2 mi Calm Calm - N/A   Scattered Clouds
1:00 PM 55.4 °F - 55.4 °F 100% 30.36 in 5.6 mi Calm Calm - N/A   Partly Cloudy
1:30 PM 60.8 °F - 55.4 °F 82% 30.36 in - Calm Calm - N/A   Clear
2:00 PM 64.4 °F - 53.6 °F 68% 30.36 in - Calm Calm - N/A   Clear
2:30 PM 69.8 °F - 53.6 °F 56% 30.33 in - Calm Calm - N/A   Clear
3:00 PM 73.4 °F - 51.8 °F 47% 30.33 in - SSW 1.2 mph - N/A   Clear
3:30 PM 77.0 °F - 48.2 °F 36% 30.30 in - Calm Calm - N/A   Clear
4:00 PM 77.0 °F - 48.2 °F 36% 30.30 in - Calm Calm - N/A   Clear
4:30 PM 78.8 °F - 48.2 °F 34% 30.30 in - Calm Calm - N/A   Clear
5:00 PM 78.8 °F - 48.2 °F 34% 30.30 in - Calm Calm - N/A   Clear
5:30 PM 78.8 °F - 48.2 °F 34% 30.27 in - Calm Calm - N/A   Clear
6:00 PM 78.8 °F - 48.2 °F 34% 30.27 in - Calm Calm - N/A   Clear
6:30 PM 78.8 °F - 50.0 °F 36% 30.27 in - Variable 1.2 mph - N/A   Clear
7:00 PM 75.2 °F - 50.0 °F 41% 30.27 in - NE 3.5 mph - N/A   Clear
7:30 PM 71.6 °F - 55.4 °F 57% 30.30 in - NNE 5.8 mph - N/A   Clear
8:00 PM 69.8 °F - 55.4 °F 60% 30.30 in - NNE 3.5 mph - N/A   Clear
8:30 PM 66.2 °F - 55.4 °F 68% 30.30 in - Calm Calm - N/A   Clear
9:00 PM 60.8 °F - 55.4 °F 82% 30.30 in - East 1.2 mph - N/A   Clear
9:30 PM 59.0 °F - 55.4 °F 88% 30.33 in - ENE 2.3 mph - N/A   Clear
10:00 PM 59.0 °F - 53.6 °F 82% 30.33 in - Calm Calm - N/A   Clear
10:30 PM 57.2 °F - 53.6 °F 88% 30.33 in - Calm Calm - N/A   Clear
11:00 PM 55.4 °F - 51.8 °F 88% 30.33 in - Calm Calm - N/A   Clear